{"data":{"norad_id":52335,"epoch":"2026-05-25T05:07:42.801312Z","epoch_age_seconds":56498,"freshness":"FRESH","line1":"1 52335U 22045E   26145.21368983  .00000438  00000+0  45593-4 0  9993","line2":"2 52335  53.2143 225.5931 0001134  87.3754 272.7367 15.08836286227190","mean_motion":15.08836286,"eccentricity":0.0001134,"inclination_deg":53.2143,"raan_deg":225.5931,"arg_perigee_deg":87.3754,"mean_anomaly_deg":272.7367,"bstar":4.5593e-5,"rev_number":22719,"period_min":95.437789597274,"perigee_km":538.97025227613,"apogee_km":540.53923012303,"semimajor_km":6917.8917411996,"source":"CELESTRAK","updated_at":"2026-05-25T13:38:17.113174Z"}}